Weather History for Hayward, WI

Change the Weather History Date:

Saturday, April 6, 2013

  Actual Average Record
Temperature  
Mean Temperature 37 °F -  
Max Temperature 43 °F 55 °F 68 °F (2006)
Min Temperature 32 °F 37 °F 8 °F (2002)
Degree Days  
Heating Degree Days 28    
Moisture  
Dew Point 30 °F    
Average Humidity 84    
Maximum Humidity 93    
Minimum Humidity 60    
Precipitation  
Precipitation 0.36 in - - ()
Sea Level Pressure  
Sea Level Pressure 29.73 in    
Wind  
Wind Speed 7 mph (SE)    
Max Wind Speed 17 mph    
Max Gust Speed 26 mph    
Visibility 6 miles    
Events Rain , Snow    
Averages and records for this station are not official NWS values.
T = Trace of Precipitation, MM = Missing Value Source: NWS Daily Summary

Daily Weather History Graph

Daily Weather History Graph

Search for Another Location

Airport:

Trip Planner

Search our weather history database for the weather conditions in past years. The results will help you decide how hot, cold, wet, or windy it might be!

Date:

Astronomy

Apr. 06, 2013 Rise Set
Actual Time 6:35 AM CDT 7:41 PM CDT
Civil Twilight 6:05 AM CDT 8:12 PM CDT
Nautical Twilight 5:28 AM CDT 8:48 PM CDT
Astronomical Twilight 4:49 AM CDT 9:27 PM CDT
Moon 4:31 AM CDT (4/6) 4:00 PM CDT (4/6)
Length of Visible Light 14h 06m
Length of Day
13h 05m
Waning Crescent, 15% of the Moon is Illuminated
Apr 6
Waning Crescent
Apr 10
New
Apr 18
First Quarter
Apr 25
Full
May 2
Last Quarter

Hourly Weather History & Observations

Time (CDT) Temp. Windchill Dew Point Humidity Pressure Visibility Wind Dir Wind Speed Gust Speed Precip Events Conditions
12:17 AM 32.0 °F 27.5 °F 28.4 °F 87% 30.02 in 2.0 mi ESE 4.6 mph - 0.01 in Snow Light Snow
12:53 AM 32.0 °F 25.6 °F 28.9 °F 88% 30.04 in 2.0 mi ESE 6.9 mph - 0.02 in Snow Light Snow
1:10 AM 32.0 °F 24.2 °F 28.4 °F 87% 29.99 in 4.0 mi SE 9.2 mph - 0.00 in Snow Light Snow
1:33 AM 32.0 °F 23.6 °F 28.4 °F 87% 29.97 in 2.5 mi ESE 10.4 mph - 0.01 in Snow Light Snow
1:41 AM 32.0 °F 23.6 °F 28.4 °F 87% 29.96 in 3.0 mi ESE 10.4 mph - 0.01 in Snow Light Snow
1:50 AM 32.0 °F 24.8 °F 28.4 °F 87% 29.95 in 2.0 mi ESE 8.1 mph - 0.01 in Snow Light Snow
1:53 AM 32.0 °F 24.2 °F 28.9 °F 88% 29.99 in 2.0 mi ESE 9.2 mph 16.1 mph 0.01 in Snow Light Snow
2:06 AM 32.0 °F 24.8 °F 28.4 °F 87% 29.94 in 4.0 mi ESE 8.1 mph - 0.01 in Snow Light Snow
2:53 AM 33.1 °F 23.9 °F 28.9 °F 85% 29.95 in 10.0 mi ESE 12.7 mph 17.3 mph 0.01 in   Overcast
3:03 AM 33.8 °F 25.3 °F 28.4 °F 81% 29.91 in 10.0 mi ESE 11.5 mph - N/A   Overcast
3:53 AM 33.1 °F 24.4 °F 28.9 °F 85% 29.91 in 10.0 mi ESE 11.5 mph 19.6 mph 0.00 in   Overcast
4:13 AM 33.8 °F 24.8 °F 28.4 °F 81% 29.86 in 10.0 mi SE 12.7 mph - N/A   Overcast
4:53 AM 34.0 °F 25.0 °F 28.0 °F 79% 29.88 in 10.0 mi SE 12.7 mph 26.5 mph N/A   Overcast
5:53 AM 34.0 °F 23.4 °F 28.0 °F 79% 29.86 in 10.0 mi SE 17.3 mph 21.9 mph N/A   Overcast
6:53 AM 33.1 °F 25.5 °F 28.0 °F 82% 29.85 in 10.0 mi SSE 9.2 mph - 0.00 in Rain Light Rain
7:53 AM 33.1 °F 23.9 °F 26.1 °F 75% 29.83 in 10.0 mi SSE 12.7 mph 24.2 mph 0.01 in Rain Light Rain
8:53 AM 33.1 °F 24.9 °F 25.0 °F 72% 29.79 in 10.0 mi SE 10.4 mph 24.2 mph 0.00 in Rain Light Rain
9:53 AM 33.1 °F 23.9 °F 25.0 °F 72% 29.75 in 10.0 mi SSE 12.7 mph 20.7 mph 0.00 in   Overcast
10:53 AM 35.1 °F 25.5 °F 24.1 °F 64% 29.72 in 10.0 mi SSE 15.0 mph 24.2 mph N/A   Overcast
11:53 AM 35.1 °F 30.1 °F 28.9 °F 78% 29.69 in 8.0 mi SE 5.8 mph 17.3 mph 0.06 in Rain Light Rain
12:53 PM 41.0 °F 35.2 °F 30.0 °F 65% 29.66 in 10.0 mi SSE 9.2 mph - 0.00 in   Overcast
1:53 PM 42.1 °F 36.6 °F 30.0 °F 62% 29.64 in 10.0 mi South 9.2 mph - 0.00 in   Overcast
2:53 PM 42.1 °F 39.2 °F 28.9 °F 60% 29.61 in 10.0 mi Variable 4.6 mph - N/A   Overcast
3:53 PM 39.9 °F - 34.0 °F 79% 29.59 in 6.0 mi Calm Calm - 0.01 in Rain Light Rain
4:19 PM 37.4 °F - 35.6 °F 93% 29.55 in 2.5 mi Calm Calm - 0.03 in Rain Rain
4:48 PM 37.4 °F - 35.6 °F 93% 29.57 in 2.5 mi Calm Calm - 0.06 in Rain Light Rain
4:53 PM 37.0 °F - 34.0 °F 89% 29.61 in 2.5 mi Calm Calm - 0.07 in Rain Rain
5:07 PM 37.4 °F - 33.8 °F 87% 29.57 in 3.0 mi Calm Calm - 0.01 in Rain Light Rain
5:19 PM 35.6 °F - 33.8 °F 93% 29.57 in 2.5 mi Calm Calm - 0.02 in Rain Light Rain
5:42 PM 35.6 °F - 33.8 °F 93% 29.58 in 1.5 mi Calm Calm - 0.05 in Snow Light Snow
5:53 PM 34.0 °F - 32.0 °F 92% 29.62 in 1.0 mi Calm Calm - 0.07 in Snow Light Snow
6:00 PM 33.8 °F - 32.0 °F 93% 29.58 in 0.8 mi Calm Calm - 0.01 in Snow Light Snow
6:22 PM 33.8 °F - 30.2 °F 87% 29.58 in 1.0 mi Calm Calm - 0.04 in Snow Light Snow
6:46 PM 33.8 °F - 30.2 °F 87% 29.58 in 1.2 mi Calm Calm - 0.07 in Snow Light Snow
6:53 PM 33.1 °F - 30.9 °F 92% 29.62 in 1.2 mi Calm Calm - 0.07 in Snow Light Snow
7:06 PM 33.8 °F - 30.2 °F 87% 29.58 in 1.0 mi Calm Calm - 0.01 in Snow Light Snow
7:33 PM 33.8 °F - 30.2 °F 87% 29.58 in 0.8 mi Calm Calm - 0.02 in Snow Light Snow
7:43 PM 33.8 °F - 30.2 °F 87% 29.58 in 1.2 mi Calm Calm - 0.02 in Snow Light Snow
7:53 PM 33.1 °F 30.0 °F 30.9 °F 92% 29.62 in 3.0 mi Variable 3.5 mph - 0.02 in Snow Light Snow
8:32 PM 33.8 °F - 30.2 °F 87% 29.60 in 2.5 mi Calm Calm - 0.01 in Snow Light Snow
8:53 PM 33.1 °F - 30.9 °F 92% 29.65 in 7.0 mi Calm Calm - 0.01 in Snow Light Snow
9:53 PM 33.1 °F 28.7 °F 30.0 °F 89% 29.68 in 10.0 mi Variable 4.6 mph - 0.00 in   Overcast
10:22 PM 33.8 °F 28.6 °F 30.2 °F 87% 29.64 in 10.0 mi Variable 5.8 mph - N/A   Overcast
10:42 PM 33.8 °F 30.8 °F 30.2 °F 87% 29.64 in 10.0 mi Variable 3.5 mph - N/A   Overcast
10:53 PM 33.1 °F 28.7 °F 30.0 °F 89% 29.68 in 10.0 mi Variable 4.6 mph - N/A   Overcast
11:53 PM 32.0 °F 28.7 °F 30.0 °F 92% 29.70 in 10.0 mi Variable 3.5 mph - N/A   Overcast